FW2545 Weather Reports


time (UTC)temp
F
wind
direction
speed
knots
gust
knots
rain 1hr
in
rain 24hr
in
rain mn
in
humidity
%
barometer
mb
20260507223104 74 313 7.8 16.5 0.00 0.00 0.00 30 1017.5
20260507221532 75 302 6.1 14.8 0.00 0.00 0.00 31 1017.7
20260507220032 75 326 6.1 13.0 0.00 0.00 0.00 31 1017.9
20260507214530 75 316 6.1 15.6 0.00 0.00 0.00 33 1018.1
20260507213031 75 323 5.2 10.4 0.00 0.00 0.00 33 1018.2
20260507211546 75 328 6.1 14.8 0.00 0.00 0.00 33 1018.3
20260507210031 75 337 5.2 12.2 0.00 0.00 0.00 33 1018.5
20260507204532 75 344 2.6 8.7 0.00 0.00 0.00 34 1018.6
20260507203032 74 342 3.5 7.8 0.00 0.00 0.00 34 1018.9
20260507201607 74 311 3.5 10.4 0.00 0.00 0.00 36 1019.0
20260507194531 74 360 3.5 9.6 0.00 0.00 0.00 39 1019.2
20260507193031 73 43 3.5 9.6 0.00 0.00 0.00 41 1019.4
20260507191530 71 343 1.7 7.8 0.00 0.00 0.00 43 1019.5
20260507190029 70 332 3.5 10.4 0.00 0.00 0.00 45 1019.6
20260507181532 63 343 2.6 9.6 0.00 0.00 0.00 56 1020.0
20260507173029 61 351 3.5 7.8 0.00 0.00 0.00 63 1020.3
20260507171533 60 1 4.3 8.7 0.00 0.00 0.00 64 1020.5
20260507170032 60 345 5.2 10.4 0.00 0.00 0.00 66 1020.5
20260507164528 59 339 4.3 8.7 0.00 0.00 0.00 69 1020.4
20260507161532 58 280 5.2 11.3 0.00 0.00 0.00 73 1020.3
20260507160032 57 284 5.2 11.3 0.00 0.00 0.00 77 1020.7
20260507154531 55 244 2.6 8.7 0.00 0.00 0.00 81 1020.9
20260507153031 53 228 2.6 5.2 0.00 0.00 0.00 84 1021.0
20260507151530 52 241 1.7 8.7 0.00 0.00 0.00 87 1021.1
20260507150038 51 244 3.5 7.0 0.00 0.00 0.00 89 1021.0
20260507144532 49 227 4.3 7.8 0.00 0.00 0.00 91 1021.0
20260507143030 46 247 2.6 6.1 0.00 0.00 0.00 92 1020.9
20260507141530 44 256 1.7 5.2 0.00 0.00 0.00 91 1020.8
20260507140031 43 202 0.0 1.7 0.00 0.00 0.00 90 1020.6
20260507134533 42 245 0.9 3.5 0.00 0.00 0.00 89 1020.5
20260507133106 43 314 0.9 3.5 0.00 0.00 0.00 89 1020.4
20260507131614 46 21 0.0 3.5 0.00 0.00 0.00 89 1020.4
20260507130031 47 22 1.7 5.2 0.00 0.00 0.00 90 1020.3
20260507124604 47 20 3.5 6.1 0.00 0.00 0.00 90 1020.4
20260507121531 45 17 2.6 7.0 0.00 0.00 0.00 88 1020.1
20260507120029 45 24 0.9 3.5 0.00 0.00 0.00 87 1020.1
20260507114534 46 318 0.0 2.6 0.00 0.00 0.00 86 1020.0
20260507111530 49 37 0.9 4.3 0.00 0.00 0.00 85 1019.8
20260507110031 49 86 2.6 5.2 0.00 0.00 0.00 84 1019.7
20260507104530 49 351 2.6 7.0 0.00 0.00 0.00 83 1019.6
20260507103145 50 31 2.6 7.8 0.00 0.00 0.00 82 1019.5
20260507100042 52 45 2.6 7.0 0.00 0.00 0.00 78 1019.6
20260507094530 54 31 2.6 5.2 0.00 0.00 0.00 75 1019.7
20260507093033 55 56 1.7 4.3 0.00 0.00 0.00 74 1019.7
20260507091529 55 307 3.5 7.0 0.00 0.00 0.00 74 1019.7
20260507090144 55 329 2.6 5.2 0.00 0.00 0.00 76 1019.7
20260507084529 54 338 2.6 8.7 0.00 0.00 0.00 79 1019.7
20260507083034 54 335 4.3 8.7 0.00 0.00 0.00 80 1019.8
20260507081533 54 344 3.5 9.6 0.00 0.00 0.00 80 1019.8
20260507080030 54 349 3.5 9.6 0.00 0.00 0.00 81 1019.9
20260507074528 53 26 1.7 7.0 0.00 0.00 0.00 82 1019.9
20260507073103 52 23 2.6 6.1 0.00 0.00 0.00 81 1019.7
20260507071528 52 269 0.0 3.5 0.00 0.00 0.00 79 1019.7
20260507064531 55 22 0.0 0.9 0.00 0.00 0.00 73 1020.0
20260507063031 56 53 1.7 4.3 0.00 0.00 0.00 70 1020.0
20260507061530 57 351 0.9 6.1 0.00 0.00 0.00 68 1020.1
20260507060031 58 340 3.5 7.8 0.00 0.00 0.00 66 1020.2
20260507054606 58 351 4.3 9.6 0.00 0.00 0.00 65 1020.3
20260507053030 58 7 3.5 7.8 0.00 0.00 0.00 62 1020.4
20260507051529 57 306 2.6 6.1 0.00 0.00 0.00 61 1020.4
20260507050028 58 261 0.9 4.3 0.00 0.00 0.00 59 1020.4
20260507044529 59 250 2.6 7.0 0.00 0.00 0.00 57 1020.3
20260507041528 61 248 6.1 12.2 0.00 0.00 0.00 53 1020.2
20260507040039 63 249 6.1 11.3 0.00 0.00 0.00 51 1020.0
20260507033108 64 258 8.7 14.8 0.00 0.00 0.00 49 1019.7
20260507031530 65 254 8.7 17.4 0.00 0.00 0.00 48 1019.6
20260507030031 66 264 8.7 17.4 0.00 0.00 0.00 48 1019.5
20260507024529 66 264 9.6 19.1 0.00 0.00 0.00 48 1019.4
20260507023033 66 266 6.1 13.0 0.00 0.00 0.00 49 1019.5
20260507014529 66 317 3.5 7.8 0.00 0.00 0.00 50 1019.4
20260507013030 67 305 4.3 10.4 0.00 0.00 0.00 49 1019.3
20260507011530 68 297 6.1 12.2 0.00 0.00 0.00 47 1019.1
20260507010031 68 290 7.0 16.5 0.00 0.00 0.00 46 1019.0
20260507003104 70 275 7.0 14.8 0.00 0.00 0.00 45 1018.9
20260507000031 73 283 6.1 12.2 0.00 0.00 0.00 44 1018.6
20260506234531 72 300 5.2 12.2 0.00 0.00 0.00 44 1018.6
20260506233030 74 298 4.3 13.0 0.00 0.00 0.00 42 1018.7
20260506231530 75 282 5.2 13.0 0.00 0.00 0.00 42 1018.7
20260506230031 76 281 6.1 12.2 0.00 0.00 0.00 41 1018.7
20260506224529 77 273 7.8 15.6 0.00 0.00 0.00 41 1018.7